owner,sensor,date,latitude,longitude,relative_humidity,qcFlag 
DISL,ioos:station:DISL:CATA:1,2014-06-01T00:00:00Z,30.3085,-88.1395,85.5,1111122 
DISL,ioos:station:DISL:CATA:1,2014-06-01T00:30:00Z,30.3085,-88.1395,81.9,1111122 
DISL,ioos:station:DISL:CATA:1,2014-06-01T01:00:00Z,30.3085,-88.1395,81.8,1111122 
DISL,ioos:station:DISL:CATA:1,2014-06-01T01:30:00Z,30.3085,-88.1395,81.7,1111122 
DISL,ioos:station:DISL:CATA:1,2014-06-01T02:00:00Z,30.3085,-88.1395,84.6,1111122 
DISL,ioos:station:DISL:CATA:1,2014-06-01T02:30:00Z,30.3085,-88.1395,84.6,1111122 
DISL,ioos:station:DISL:CATA:1,2014-06-01T03:00:00Z,30.3085,-88.1395,88.3,1111122 
DISL,ioos:station:DISL:CATA:1,2014-06-01T03:30:00Z,30.3085,-88.1395,87.2,1111122 
DISL,ioos:station:DISL:CATA:1,2014-06-01T04:00:00Z,30.3085,-88.1395,89.6,1111122 
DISL,ioos:station:DISL:CATA:1,2014-06-01T04:30:00Z,30.3085,-88.1395,90.8,1111122 
DISL,ioos:station:DISL:CATA:1,2014-06-01T05:00:00Z,30.3085,-88.1395,90.8,1111122 
DISL,ioos:station:DISL:CATA:1,2014-06-01T05:30:00Z,30.3085,-88.1395,89.6,1111122 
DISL,ioos:station:DISL:CATA:1,2014-06-01T06:30:00Z,30.3085,-88.1395,87.4,1111122 
DISL,ioos:station:DISL:CATA:1,2014-06-01T07:00:00Z,30.3085,-88.1395,89.1,1111122 
DISL,ioos:station:DISL:CATA:1,2014-06-01T07:30:00Z,30.3085,-88.1395,89.0,1111122 
DISL,ioos:station:DISL:CATA:1,2014-06-01T08:00:00Z,30.3085,-88.1395,89.2,1111122 
DISL,ioos:station:DISL:CATA:1,2014-06-01T08:30:00Z,30.3085,-88.1395,89.5,1111122 
DISL,ioos:station:DISL:CATA:1,2014-06-01T09:00:00Z,30.3085,-88.1395,90.6,1111122 
DISL,ioos:station:DISL:CATA:1,2014-06-01T09:30:00Z,30.3085,-88.1395,90.4,1111122 
DISL,ioos:station:DISL:CATA:1,2014-06-01T10:00:00Z,30.3085,-88.1395,90.0,1111122 
DISL,ioos:station:DISL:CATA:1,2014-06-01T10:30:00Z,30.3085,-88.1395,93.1,1111122 
DISL,ioos:station:DISL:CATA:1,2014-06-01T11:00:00Z,30.3085,-88.1395,94.6,1111122 
DISL,ioos:station:DISL:CATA:1,2014-06-01T11:30:00Z,30.3085,-88.1395,94.7,1111122 
DISL,ioos:station:DISL:CATA:1,2014-06-01T12:00:00Z,30.3085,-88.1395,94.0,1111122 
DISL,ioos:station:DISL:CATA:1,2014-06-01T12:30:00Z,30.3085,-88.1395,92.9,1111122 
DISL,ioos:station:DISL:CATA:1,2014-06-01T13:00:00Z,30.3085,-88.1395,91.3,1111122 
DISL,ioos:station:DISL:CATA:1,2014-06-01T13:30:00Z,30.3085,-88.1395,88.5,1111122 
DISL,ioos:station:DISL:CATA:1,2014-06-01T14:00:00Z,30.3085,-88.1395,89.2,1111122 
DISL,ioos:station:DISL:CATA:1,2014-06-01T14:30:00Z,30.3085,-88.1395,88.7,1111122 
DISL,ioos:station:DISL:CATA:1,2014-06-01T15:00:00Z,30.3085,-88.1395,85.0,1111122 
DISL,ioos:station:DISL:CATA:1,2014-06-01T15:30:00Z,30.3085,-88.1395,83.0,1111122 
DISL,ioos:station:DISL:CATA:1,2014-06-01T16:00:00Z,30.3085,-88.1395,84.4,1111122 
DISL,ioos:station:DISL:CATA:1,2014-06-01T16:30:00Z,30.3085,-88.1395,82.3,1111122 
DISL,ioos:station:DISL:CATA:1,2014-06-01T17:00:00Z,30.3085,-88.1395,81.8,1111122 
DISL,ioos:station:DISL:CATA:1,2014-06-01T17:30:00Z,30.3085,-88.1395,76.4,1111122 
DISL,ioos:station:DISL:CATA:1,2014-06-01T18:00:00Z,30.3085,-88.1395,78.01,1111122 
DISL,ioos:station:DISL:CATA:1,2014-06-01T18:30:00Z,30.3085,-88.1395,77.49,1111122 
DISL,ioos:station:DISL:CATA:1,2014-06-01T19:00:00Z,30.3085,-88.1395,77.8,1111122 
DISL,ioos:station:DISL:CATA:1,2014-06-01T19:30:00Z,30.3085,-88.1395,76.26,1111122 
DISL,ioos:station:DISL:CATA:1,2014-06-01T20:00:00Z,30.3085,-88.1395,78.97,1111122 
DISL,ioos:station:DISL:CATA:1,2014-06-01T20:30:00Z,30.3085,-88.1395,79.62,1111122 
DISL,ioos:station:DISL:CATA:1,2014-06-01T21:00:00Z,30.3085,-88.1395,78.25,1111122 
DISL,ioos:station:DISL:CATA:1,2014-06-01T21:30:00Z,30.3085,-88.1395,80.0,1111122 
DISL,ioos:station:DISL:CATA:1,2014-06-01T22:00:00Z,30.3085,-88.1395,83.1,1111122 
DISL,ioos:station:DISL:CATA:1,2014-06-01T22:30:00Z,30.3085,-88.1395,80.4,1111122 
DISL,ioos:station:DISL:CATA:1,2014-06-01T23:00:00Z,30.3085,-88.1395,79.15,1111122 
DISL,ioos:station:DISL:CATA:1,2014-06-01T23:30:00Z,30.3085,-88.1395,82.1,1111122 
DISL,ioos:station:DISL:CATA:1,2014-06-02T00:00:00Z,30.3085,-88.1395,82.3,1111122 
DISL,ioos:station:DISL:CATA:1,2014-06-02T00:30:00Z,30.3085,-88.1395,82.2,1111122 
DISL,ioos:station:DISL:CATA:1,2014-06-02T01:00:00Z,30.3085,-88.1395,82.5,1111122 
DISL,ioos:station:DISL:CATA:1,2014-06-02T01:30:00Z,30.3085,-88.1395,84.1,1111122 
DISL,ioos:station:DISL:CATA:1,2014-06-02T02:00:00Z,30.3085,-88.1395,81.8,1111122 
DISL,ioos:station:DISL:CATA:1,2014-06-02T02:30:00Z,30.3085,-88.1395,82.8,1111122 
DISL,ioos:station:DISL:CATA:1,2014-06-02T03:00:00Z,30.3085,-88.1395,82.0,1111122 
DISL,ioos:station:DISL:CATA:1,2014-06-02T03:30:00Z,30.3085,-88.1395,82.4,1111122 
DISL,ioos:station:DISL:CATA:1,2014-06-02T04:00:00Z,30.3085,-88.1395,81.9,1111122 
DISL,ioos:station:DISL:CATA:1,2014-06-02T04:30:00Z,30.3085,-88.1395,83.4,1111122 
DISL,ioos:station:DISL:CATA:1,2014-06-02T05:00:00Z,30.3085,-88.1395,82.7,1111122 
DISL,ioos:station:DISL:CATA:1,2014-06-02T05:30:00Z,30.3085,-88.1395,83.3,1111122 
DISL,ioos:station:DISL:CATA:1,2014-06-02T06:30:00Z,30.3085,-88.1395,81.0,1111122 
DISL,ioos:station:DISL:CATA:1,2014-06-02T07:00:00Z,30.3085,-88.1395,79.91,1111122 
DISL,ioos:station:DISL:CATA:1,2014-06-02T07:30:00Z,30.3085,-88.1395,83.4,1111122 
DISL,ioos:station:DISL:CATA:1,2014-06-02T08:00:00Z,30.3085,-88.1395,84.0,1111122 
DISL,ioos:station:DISL:CATA:1,2014-06-02T08:30:00Z,30.3085,-88.1395,82.5,1111122 
DISL,ioos:station:DISL:CATA:1,2014-06-02T09:00:00Z,30.3085,-88.1395,84.0,1111122 
DISL,ioos:station:DISL:CATA:1,2014-06-02T09:30:00Z,30.3085,-88.1395,84.1,1111122 
DISL,ioos:station:DISL:CATA:1,2014-06-02T10:00:00Z,30.3085,-88.1395,86.3,1111122 
DISL,ioos:station:DISL:CATA:1,2014-06-02T10:30:00Z,30.3085,-88.1395,91.6,1111122 
DISL,ioos:station:DISL:CATA:1,2014-06-02T11:00:00Z,30.3085,-88.1395,90.5,1111122 
DISL,ioos:station:DISL:CATA:1,2014-06-02T11:30:00Z,30.3085,-88.1395,89.8,1111122 
DISL,ioos:station:DISL:CATA:1,2014-06-02T12:00:00Z,30.3085,-88.1395,90.8,1111122 
DISL,ioos:station:DISL:CATA:1,2014-06-02T12:30:00Z,30.3085,-88.1395,89.1,1111122 
DISL,ioos:station:DISL:CATA:1,2014-06-02T13:00:00Z,30.3085,-88.1395,89.3,1111122 
DISL,ioos:station:DISL:CATA:1,2014-06-02T13:30:00Z,30.3085,-88.1395,86.8,1111122 
DISL,ioos:station:DISL:CATA:1,2014-06-02T14:00:00Z,30.3085,-88.1395,87.4,1111122 
DISL,ioos:station:DISL:CATA:1,2014-06-02T14:30:00Z,30.3085,-88.1395,86.2,1111122 
DISL,ioos:station:DISL:CATA:1,2014-06-02T15:00:00Z,30.3085,-88.1395,84.6,1111122 
DISL,ioos:station:DISL:CATA:1,2014-06-02T15:30:00Z,30.3085,-88.1395,82.6,1111122 
DISL,ioos:station:DISL:CATA:1,2014-06-02T16:00:00Z,30.3085,-88.1395,83.0,1111122 
DISL,ioos:station:DISL:CATA:1,2014-06-02T16:30:00Z,30.3085,-88.1395,82.9,1111122 
DISL,ioos:station:DISL:CATA:1,2014-06-02T17:00:00Z,30.3085,-88.1395,79.52,1111122 
DISL,ioos:station:DISL:CATA:1,2014-06-02T17:30:00Z,30.3085,-88.1395,80.4,1111122 
DISL,ioos:station:DISL:CATA:1,2014-06-02T18:00:00Z,30.3085,-88.1395,79.86,1111122 
DISL,ioos:station:DISL:CATA:1,2014-06-02T18:30:00Z,30.3085,-88.1395,78.01,1111122 
DISL,ioos:station:DISL:CATA:1,2014-06-02T19:00:00Z,30.3085,-88.1395,81.2,1111122 
DISL,ioos:station:DISL:CATA:1,2014-06-02T19:30:00Z,30.3085,-88.1395,79.31,1111122 
DISL,ioos:station:DISL:CATA:1,2014-06-02T20:00:00Z,30.3085,-88.1395,79.41,1111122 
DISL,ioos:station:DISL:CATA:1,2014-06-02T20:30:00Z,30.3085,-88.1395,77.15,1111122 
DISL,ioos:station:DISL:CATA:1,2014-06-02T21:00:00Z,30.3085,-88.1395,83.6,1111122 
DISL,ioos:station:DISL:CATA:1,2014-06-02T21:30:00Z,30.3085,-88.1395,82.6,1111122 
DISL,ioos:station:DISL:CATA:1,2014-06-02T22:00:00Z,30.3085,-88.1395,80.1,1111122 
DISL,ioos:station:DISL:CATA:1,2014-06-02T22:30:00Z,30.3085,-88.1395,82.3,1111122 
DISL,ioos:station:DISL:CATA:1,2014-06-02T23:00:00Z,30.3085,-88.1395,81.3,1111122 
DISL,ioos:station:DISL:CATA:1,2014-06-02T23:30:00Z,30.3085,-88.1395,82.6,1111122 
DISL,ioos:station:DISL:CATA:1,2014-06-03T00:00:00Z,30.3085,-88.1395,80.7,1111122 
DISL,ioos:station:DISL:CATA:1,2014-06-03T00:30:00Z,30.3085,-88.1395,81.1,1111122 
DISL,ioos:station:DISL:CATA:1,2014-06-03T01:00:00Z,30.3085,-88.1395,82.6,1111122 
DISL,ioos:station:DISL:CATA:1,2014-06-03T01:30:00Z,30.3085,-88.1395,83.5,1111122 
DISL,ioos:station:DISL:CATA:1,2014-06-03T02:00:00Z,30.3085,-88.1395,83.6,1111122 
DISL,ioos:station:DISL:CATA:1,2014-06-03T02:30:00Z,30.3085,-88.1395,81.1,1111122 
DISL,ioos:station:DISL:CATA:1,2014-06-03T03:00:00Z,30.3085,-88.1395,80.6,1111122 
DISL,ioos:station:DISL:CATA:1,2014-06-03T03:30:00Z,30.3085,-88.1395,80.5,1111122 
DISL,ioos:station:DISL:CATA:1,2014-06-03T04:00:00Z,30.3085,-88.1395,89.8,1111122 
DISL,ioos:station:DISL:CATA:1,2014-06-03T04:30:00Z,30.3085,-88.1395,85.9,1111122 
DISL,ioos:station:DISL:CATA:1,2014-06-03T05:00:00Z,30.3085,-88.1395,83.2,1111122 
DISL,ioos:station:DISL:CATA:1,2014-06-03T05:30:00Z,30.3085,-88.1395,87.3,1111122 
DISL,ioos:station:DISL:CATA:1,2014-06-03T06:30:00Z,30.3085,-88.1395,89.7,1111122 
DISL,ioos:station:DISL:CATA:1,2014-06-03T07:00:00Z,30.3085,-88.1395,91.7,1111122 
DISL,ioos:station:DISL:CATA:1,2014-06-03T07:30:00Z,30.3085,-88.1395,90.6,1111122 
DISL,ioos:station:DISL:CATA:1,2014-06-03T08:00:00Z,30.3085,-88.1395,86.0,1111122 
DISL,ioos:station:DISL:CATA:1,2014-06-03T08:30:00Z,30.3085,-88.1395,91.7,1111122 
DISL,ioos:station:DISL:CATA:1,2014-06-03T09:00:00Z,30.3085,-88.1395,91.7,1111122 
DISL,ioos:station:DISL:CATA:1,2014-06-03T09:30:00Z,30.3085,-88.1395,92.5,1111122 
DISL,ioos:station:DISL:CATA:1,2014-06-03T10:00:00Z,30.3085,-88.1395,92.1,1111122 
DISL,ioos:station:DISL:CATA:1,2014-06-03T10:30:00Z,30.3085,-88.1395,89.4,1111122 
DISL,ioos:station:DISL:CATA:1,2014-06-03T11:00:00Z,30.3085,-88.1395,92.3,1111122 
DISL,ioos:station:DISL:CATA:1,2014-06-03T11:30:00Z,30.3085,-88.1395,93.4,1111122 
DISL,ioos:station:DISL:CATA:1,2014-06-03T12:00:00Z,30.3085,-88.1395,92.0,1111122 
DISL,ioos:station:DISL:CATA:1,2014-06-03T12:30:00Z,30.3085,-88.1395,89.1,1111122 
DISL,ioos:station:DISL:CATA:1,2014-06-03T13:00:00Z,30.3085,-88.1395,87.7,1111122 
DISL,ioos:station:DISL:CATA:1,2014-06-03T13:30:00Z,30.3085,-88.1395,88.0,1111122 
DISL,ioos:station:DISL:CATA:1,2014-06-03T14:00:00Z,30.3085,-88.1395,89.7,1111122 
DISL,ioos:station:DISL:CATA:1,2014-06-03T14:30:00Z,30.3085,-88.1395,87.5,1111122 
DISL,ioos:station:DISL:CATA:1,2014-06-03T15:00:00Z,30.3085,-88.1395,91.2,1111122 
DISL,ioos:station:DISL:CATA:1,2014-06-03T15:30:00Z,30.3085,-88.1395,90.5,1111122 
DISL,ioos:station:DISL:CATA:1,2014-06-03T16:00:00Z,30.3085,-88.1395,89.6,1111122 
DISL,ioos:station:DISL:CATA:1,2014-06-03T16:30:00Z,30.3085,-88.1395,89.0,1111122 
DISL,ioos:station:DISL:CATA:1,2014-06-03T17:00:00Z,30.3085,-88.1395,86.3,1111122 
DISL,ioos:station:DISL:CATA:1,2014-06-03T17:30:00Z,30.3085,-88.1395,88.4,1111122 
DISL,ioos:station:DISL:CATA:1,2014-06-03T18:00:00Z,30.3085,-88.1395,90.2,1111122 
DISL,ioos:station:DISL:CATA:1,2014-06-03T18:30:00Z,30.3085,-88.1395,90.0,1111122 
DISL,ioos:station:DISL:CATA:1,2014-06-03T19:00:00Z,30.3085,-88.1395,89.6,1111122 
DISL,ioos:station:DISL:CATA:1,2014-06-03T19:30:00Z,30.3085,-88.1395,87.9,1111122 
DISL,ioos:station:DISL:CATA:1,2014-06-03T20:00:00Z,30.3085,-88.1395,87.0,1111122 
DISL,ioos:station:DISL:CATA:1,2014-06-03T20:30:00Z,30.3085,-88.1395,86.3,1111122 
DISL,ioos:station:DISL:CATA:1,2014-06-03T21:00:00Z,30.3085,-88.1395,84.2,1111122 
DISL,ioos:station:DISL:CATA:1,2014-06-03T21:30:00Z,30.3085,-88.1395,81.6,1111122 
DISL,ioos:station:DISL:CATA:1,2014-06-03T22:00:00Z,30.3085,-88.1395,79.09,1111122 
DISL,ioos:station:DISL:CATA:1,2014-06-03T22:30:00Z,30.3085,-88.1395,74.77,1111122 
DISL,ioos:station:DISL:CATA:1,2014-06-03T23:00:00Z,30.3085,-88.1395,74.86,1111122 
DISL,ioos:station:DISL:CATA:1,2014-06-03T23:30:00Z,30.3085,-88.1395,74.11,1111122 
DISL,ioos:station:DISL:CATA:1,2014-06-04T00:00:00Z,30.3085,-88.1395,75.28,1111122 
DISL,ioos:station:DISL:CATA:1,2014-06-04T00:30:00Z,30.3085,-88.1395,78.6,1111122 
DISL,ioos:station:DISL:CATA:1,2014-06-04T01:00:00Z,30.3085,-88.1395,80.7,1111122 
DISL,ioos:station:DISL:CATA:1,2014-06-04T01:30:00Z,30.3085,-88.1395,82.2,1111122 
DISL,ioos:station:DISL:CATA:1,2014-06-04T02:00:00Z,30.3085,-88.1395,81.8,1111122 
DISL,ioos:station:DISL:CATA:1,2014-06-04T02:30:00Z,30.3085,-88.1395,80.7,1111122 
DISL,ioos:station:DISL:CATA:1,2014-06-04T03:00:00Z,30.3085,-88.1395,79.09,1111122 
DISL,ioos:station:DISL:CATA:1,2014-06-04T03:30:00Z,30.3085,-88.1395,79.3,1111122 
DISL,ioos:station:DISL:CATA:1,2014-06-04T04:00:00Z,30.3085,-88.1395,80.7,1111122 
DISL,ioos:station:DISL:CATA:1,2014-06-04T04:30:00Z,30.3085,-88.1395,80.8,1111122 
DISL,ioos:station:DISL:CATA:1,2014-06-04T05:00:00Z,30.3085,-88.1395,79.44,1111122 
DISL,ioos:station:DISL:CATA:1,2014-06-04T05:30:00Z,30.3085,-88.1395,80.8,1111122 
DISL,ioos:station:DISL:CATA:1,2014-06-04T06:30:00Z,30.3085,-88.1395,79.88,1111122 
DISL,ioos:station:DISL:CATA:1,2014-06-04T07:00:00Z,30.3085,-88.1395,78.75,1111122 
DISL,ioos:station:DISL:CATA:1,2014-06-04T07:30:00Z,30.3085,-88.1395,79.03,1111122 
DISL,ioos:station:DISL:CATA:1,2014-06-04T08:00:00Z,30.3085,-88.1395,78.24,1111122 
DISL,ioos:station:DISL:CATA:1,2014-06-04T08:30:00Z,30.3085,-88.1395,79.78,1111122 
DISL,ioos:station:DISL:CATA:1,2014-06-04T09:00:00Z,30.3085,-88.1395,79.75,1111122 
DISL,ioos:station:DISL:CATA:1,2014-06-04T09:30:00Z,30.3085,-88.1395,77.62,1111122 
DISL,ioos:station:DISL:CATA:1,2014-06-04T10:00:00Z,30.3085,-88.1395,75.81,1111122 
DISL,ioos:station:DISL:CATA:1,2014-06-04T10:30:00Z,30.3085,-88.1395,74.61,1111122 
DISL,ioos:station:DISL:CATA:1,2014-06-04T11:00:00Z,30.3085,-88.1395,80.6,1111122 
DISL,ioos:station:DISL:CATA:1,2014-06-04T11:30:00Z,30.3085,-88.1395,78.89,1111122 
DISL,ioos:station:DISL:CATA:1,2014-06-04T12:00:00Z,30.3085,-88.1395,80.2,1111122 
DISL,ioos:station:DISL:CATA:1,2014-06-04T12:30:00Z,30.3085,-88.1395,78.78,1111122 
DISL,ioos:station:DISL:CATA:1,2014-06-04T13:00:00Z,30.3085,-88.1395,78.87,1111122 
DISL,ioos:station:DISL:CATA:1,2014-06-04T13:30:00Z,30.3085,-88.1395,81.9,1111122 
DISL,ioos:station:DISL:CATA:1,2014-06-04T14:00:00Z,30.3085,-88.1395,79.31,1111122 
DISL,ioos:station:DISL:CATA:1,2014-06-04T14:30:00Z,30.3085,-88.1395,77.01,1111122 
DISL,ioos:station:DISL:CATA:1,2014-06-04T15:00:00Z,30.3085,-88.1395,73.93,1111122 
DISL,ioos:station:DISL:CATA:1,2014-06-04T15:30:00Z,30.3085,-88.1395,69.03,1111122 
DISL,ioos:station:DISL:CATA:1,2014-06-04T16:00:00Z,30.3085,-88.1395,70.06,1111122 
DISL,ioos:station:DISL:CATA:1,2014-06-04T16:30:00Z,30.3085,-88.1395,71.36,1111122 
DISL,ioos:station:DISL:CATA:1,2014-06-04T17:00:00Z,30.3085,-88.1395,71.53,1111122 
DISL,ioos:station:DISL:CATA:1,2014-06-04T17:30:00Z,30.3085,-88.1395,68.89,1111122 
DISL,ioos:station:DISL:CATA:1,2014-06-04T18:00:00Z,30.3085,-88.1395,68.72,1111122 
DISL,ioos:station:DISL:CATA:1,2014-06-04T18:30:00Z,30.3085,-88.1395,68.35,1111122 
DISL,ioos:station:DISL:CATA:1,2014-06-04T19:00:00Z,30.3085,-88.1395,70.26,1111122 
DISL,ioos:station:DISL:CATA:1,2014-06-04T19:30:00Z,30.3085,-88.1395,68.04,1111122 
DISL,ioos:station:DISL:CATA:1,2014-06-04T20:00:00Z,30.3085,-88.1395,67.25,1111122 
DISL,ioos:station:DISL:CATA:1,2014-06-04T20:30:00Z,30.3085,-88.1395,67.52,1111122 
DISL,ioos:station:DISL:CATA:1,2014-06-04T21:00:00Z,30.3085,-88.1395,69.0,1111122 
DISL,ioos:station:DISL:CATA:1,2014-06-04T21:30:00Z,30.3085,-88.1395,67.21,1111122 
DISL,ioos:station:DISL:CATA:1,2014-06-04T22:00:00Z,30.3085,-88.1395,66.08,1111122 
DISL,ioos:station:DISL:CATA:1,2014-06-04T22:30:00Z,30.3085,-88.1395,67.49,1111122 
DISL,ioos:station:DISL:CATA:1,2014-06-04T23:00:00Z,30.3085,-88.1395,69.92,1111122 
DISL,ioos:station:DISL:CATA:1,2014-06-04T23:30:00Z,30.3085,-88.1395,69.82,1111122 
DISL,ioos:station:DISL:CATA:1,2014-06-05T00:00:00Z,30.3085,-88.1395,72.29,1111122 
DISL,ioos:station:DISL:CATA:1,2014-06-05T00:30:00Z,30.3085,-88.1395,72.47,1111122 
DISL,ioos:station:DISL:CATA:1,2014-06-05T01:00:00Z,30.3085,-88.1395,74.63,1111122 
DISL,ioos:station:DISL:CATA:1,2014-06-05T01:30:00Z,30.3085,-88.1395,76.99,1111122 
DISL,ioos:station:DISL:CATA:1,2014-06-05T02:00:00Z,30.3085,-88.1395,77.44,1111122 
DISL,ioos:station:DISL:CATA:1,2014-06-05T02:30:00Z,30.3085,-88.1395,77.27,1111122 
DISL,ioos:station:DISL:CATA:1,2014-06-05T03:00:00Z,30.3085,-88.1395,74.36,1111122 
DISL,ioos:station:DISL:CATA:1,2014-06-05T03:30:00Z,30.3085,-88.1395,72.96,1111122 
DISL,ioos:station:DISL:CATA:1,2014-06-05T04:00:00Z,30.3085,-88.1395,75.46,1111122 
DISL,ioos:station:DISL:CATA:1,2014-06-05T04:30:00Z,30.3085,-88.1395,73.23,1111122 
DISL,ioos:station:DISL:CATA:1,2014-06-05T05:00:00Z,30.3085,-88.1395,73.85,1111122 
DISL,ioos:station:DISL:CATA:1,2014-06-05T05:30:00Z,30.3085,-88.1395,76.31,1111122 
DISL,ioos:station:DISL:CATA:1,2014-06-05T06:30:00Z,30.3085,-88.1395,75.69,1111122 
DISL,ioos:station:DISL:CATA:1,2014-06-05T07:00:00Z,30.3085,-88.1395,77.65,1111122 
DISL,ioos:station:DISL:CATA:1,2014-06-05T07:30:00Z,30.3085,-88.1395,78.03,1111122 
DISL,ioos:station:DISL:CATA:1,2014-06-05T08:00:00Z,30.3085,-88.1395,78.85,1111122 
DISL,ioos:station:DISL:CATA:1,2014-06-05T08:30:00Z,30.3085,-88.1395,79.71,1111122 
DISL,ioos:station:DISL:CATA:1,2014-06-05T09:00:00Z,30.3085,-88.1395,80.2,1111122 
DISL,ioos:station:DISL:CATA:1,2014-06-05T09:30:00Z,30.3085,-88.1395,78.68,1111122 
DISL,ioos:station:DISL:CATA:1,2014-06-05T10:00:00Z,30.3085,-88.1395,80.8,1111122 
DISL,ioos:station:DISL:CATA:1,2014-06-05T10:30:00Z,30.3085,-88.1395,79.54,1111122 
DISL,ioos:station:DISL:CATA:1,2014-06-05T11:00:00Z,30.3085,-88.1395,84.5,1111122 
DISL,ioos:station:DISL:CATA:1,2014-06-05T11:30:00Z,30.3085,-88.1395,79.92,1111122 
DISL,ioos:station:DISL:CATA:1,2014-06-05T12:00:00Z,30.3085,-88.1395,75.73,1111122 
DISL,ioos:station:DISL:CATA:1,2014-06-05T12:30:00Z,30.3085,-88.1395,75.21,1111122 
DISL,ioos:station:DISL:CATA:1,2014-06-05T13:00:00Z,30.3085,-88.1395,73.49,1111122 
DISL,ioos:station:DISL:CATA:1,2014-06-05T13:30:00Z,30.3085,-88.1395,73.0,1111122 
DISL,ioos:station:DISL:CATA:1,2014-06-05T14:00:00Z,30.3085,-88.1395,73.72,1111122 
DISL,ioos:station:DISL:CATA:1,2014-06-05T14:30:00Z,30.3085,-88.1395,73.9,1111122 
DISL,ioos:station:DISL:CATA:1,2014-06-05T15:00:00Z,30.3085,-88.1395,75.06,1111122 
DISL,ioos:station:DISL:CATA:1,2014-06-05T15:30:00Z,30.3085,-88.1395,74.19,1111122 
DISL,ioos:station:DISL:CATA:1,2014-06-05T16:00:00Z,30.3085,-88.1395,74.37,1111122 
DISL,ioos:station:DISL:CATA:1,2014-06-05T16:30:00Z,30.3085,-88.1395,72.46,1111122 
DISL,ioos:station:DISL:CATA:1,2014-06-05T17:00:00Z,30.3085,-88.1395,73.04,1111122 
DISL,ioos:station:DISL:CATA:1,2014-06-05T17:30:00Z,30.3085,-88.1395,71.29,1111122 
DISL,ioos:station:DISL:CATA:1,2014-06-05T18:00:00Z,30.3085,-88.1395,73.86,1111122 
DISL,ioos:station:DISL:CATA:1,2014-06-05T18:30:00Z,30.3085,-88.1395,72.66,1111122 
DISL,ioos:station:DISL:CATA:1,2014-06-05T19:00:00Z,30.3085,-88.1395,72.66,1111122 
DISL,ioos:station:DISL:CATA:1,2014-06-05T19:30:00Z,30.3085,-88.1395,74.1,1111122 
DISL,ioos:station:DISL:CATA:1,2014-06-05T20:00:00Z,30.3085,-88.1395,74.41,1111122 
DISL,ioos:station:DISL:CATA:1,2014-06-05T20:30:00Z,30.3085,-88.1395,76.16,1111122 
DISL,ioos:station:DISL:CATA:1,2014-06-05T21:00:00Z,30.3085,-88.1395,74.13,1111122 
DISL,ioos:station:DISL:CATA:1,2014-06-05T21:30:00Z,30.3085,-88.1395,74.34,1111122 
DISL,ioos:station:DISL:CATA:1,2014-06-05T22:00:00Z,30.3085,-88.1395,72.49,1111122 
DISL,ioos:station:DISL:CATA:1,2014-06-05T22:30:00Z,30.3085,-88.1395,72.15,1111122 
DISL,ioos:station:DISL:CATA:1,2014-06-05T23:00:00Z,30.3085,-88.1395,71.15,1111122 
DISL,ioos:station:DISL:CATA:1,2014-06-05T23:30:00Z,30.3085,-88.1395,73.31,1111122 
DISL,ioos:station:DISL:CATA:1,2014-06-06T00:00:00Z,30.3085,-88.1395,70.4,1111122 
DISL,ioos:station:DISL:CATA:1,2014-06-06T00:30:00Z,30.3085,-88.1395,73.21,1111122 
DISL,ioos:station:DISL:CATA:1,2014-06-06T01:00:00Z,30.3085,-88.1395,74.79,1111122 
DISL,ioos:station:DISL:CATA:1,2014-06-06T01:30:00Z,30.3085,-88.1395,73.6,1111122 
DISL,ioos:station:DISL:CATA:1,2014-06-06T02:00:00Z,30.3085,-88.1395,76.68,1111122 
DISL,ioos:station:DISL:CATA:1,2014-06-06T02:30:00Z,30.3085,-88.1395,75.9,1111122 
DISL,ioos:station:DISL:CATA:1,2014-06-06T03:00:00Z,30.3085,-88.1395,77.3,1111122 
DISL,ioos:station:DISL:CATA:1,2014-06-06T03:30:00Z,30.3085,-88.1395,79.12,1111122 
DISL,ioos:station:DISL:CATA:1,2014-06-06T04:00:00Z,30.3085,-88.1395,79.36,1111122 
DISL,ioos:station:DISL:CATA:1,2014-06-06T04:30:00Z,30.3085,-88.1395,76.07,1111122 
DISL,ioos:station:DISL:CATA:1,2014-06-06T05:00:00Z,30.3085,-88.1395,78.53,1111122 
DISL,ioos:station:DISL:CATA:1,2014-06-06T05:30:00Z,30.3085,-88.1395,79.42,1111122 
DISL,ioos:station:DISL:CATA:1,2014-06-06T06:30:00Z,30.3085,-88.1395,81.7,1111122 
DISL,ioos:station:DISL:CATA:1,2014-06-06T07:00:00Z,30.3085,-88.1395,82.2,1111122 
DISL,ioos:station:DISL:CATA:1,2014-06-06T07:30:00Z,30.3085,-88.1395,81.4,1111122 
DISL,ioos:station:DISL:CATA:1,2014-06-06T08:00:00Z,30.3085,-88.1395,78.23,1111122 
DISL,ioos:station:DISL:CATA:1,2014-06-06T08:30:00Z,30.3085,-88.1395,79.36,1111122 
DISL,ioos:station:DISL:CATA:1,2014-06-06T09:00:00Z,30.3085,-88.1395,81.0,1111122 
DISL,ioos:station:DISL:CATA:1,2014-06-06T09:30:00Z,30.3085,-88.1395,79.39,1111122 
DISL,ioos:station:DISL:CATA:1,2014-06-06T10:00:00Z,30.3085,-88.1395,78.71,1111122 
DISL,ioos:station:DISL:CATA:1,2014-06-06T10:30:00Z,30.3085,-88.1395,76.99,1111122 
DISL,ioos:station:DISL:CATA:1,2014-06-06T11:00:00Z,30.3085,-88.1395,82.1,1111122 
DISL,ioos:station:DISL:CATA:1,2014-06-06T11:30:00Z,30.3085,-88.1395,87.9,1111122 
DISL,ioos:station:DISL:CATA:1,2014-06-06T12:00:00Z,30.3085,-88.1395,87.9,1111122 
DISL,ioos:station:DISL:CATA:1,2014-06-06T12:30:00Z,30.3085,-88.1395,82.1,1111122 
DISL,ioos:station:DISL:CATA:1,2014-06-06T13:00:00Z,30.3085,-88.1395,77.98,1111122 
DISL,ioos:station:DISL:CATA:1,2014-06-06T13:30:00Z,30.3085,-88.1395,75.99,1111122 
DISL,ioos:station:DISL:CATA:1,2014-06-06T14:00:00Z,30.3085,-88.1395,73.16,1111122 
DISL,ioos:station:DISL:CATA:1,2014-06-06T14:30:00Z,30.3085,-88.1395,64.08,1111122 
DISL,ioos:station:DISL:CATA:1,2014-06-06T15:00:00Z,30.3085,-88.1395,66.4,1111122 
DISL,ioos:station:DISL:CATA:1,2014-06-06T15:30:00Z,30.3085,-88.1395,67.77,1111122 
DISL,ioos:station:DISL:CATA:1,2014-06-06T16:00:00Z,30.3085,-88.1395,64.45,1111122 
DISL,ioos:station:DISL:CATA:1,2014-06-06T16:30:00Z,30.3085,-88.1395,72.05,1111122 
DISL,ioos:station:DISL:CATA:1,2014-06-06T17:00:00Z,30.3085,-88.1395,71.58,1111122 
DISL,ioos:station:DISL:CATA:1,2014-06-06T17:30:00Z,30.3085,-88.1395,72.84,1111122 
DISL,ioos:station:DISL:CATA:1,2014-06-06T18:00:00Z,30.3085,-88.1395,74.32,1111122 
DISL,ioos:station:DISL:CATA:1,2014-06-06T18:30:00Z,30.3085,-88.1395,73.74,1111122 
DISL,ioos:station:DISL:CATA:1,2014-06-06T19:00:00Z,30.3085,-88.1395,71.93,1111122 
DISL,ioos:station:DISL:CATA:1,2014-06-06T19:30:00Z,30.3085,-88.1395,69.57,1111122 
DISL,ioos:station:DISL:CATA:1,2014-06-06T20:00:00Z,30.3085,-88.1395,70.9,1111122 
DISL,ioos:station:DISL:CATA:1,2014-06-06T20:30:00Z,30.3085,-88.1395,69.22,1111122 
DISL,ioos:station:DISL:CATA:1,2014-06-06T21:00:00Z,30.3085,-88.1395,68.79,1111122 
DISL,ioos:station:DISL:CATA:1,2014-06-06T21:30:00Z,30.3085,-88.1395,70.61,1111122 
DISL,ioos:station:DISL:CATA:1,2014-06-06T22:00:00Z,30.3085,-88.1395,72.56,1111122 
DISL,ioos:station:DISL:CATA:1,2014-06-06T22:30:00Z,30.3085,-88.1395,72.22,1111122 
DISL,ioos:station:DISL:CATA:1,2014-06-06T23:00:00Z,30.3085,-88.1395,71.19,1111122 
DISL,ioos:station:DISL:CATA:1,2014-06-06T23:30:00Z,30.3085,-88.1395,75.03,1111122 
DISL,ioos:station:DISL:CATA:1,2014-06-07T00:00:00Z,30.3085,-88.1395,76.91,1111122 
DISL,ioos:station:DISL:CATA:1,2014-06-07T00:30:00Z,30.3085,-88.1395,78.49,1111122 
DISL,ioos:station:DISL:CATA:1,2014-06-07T01:00:00Z,30.3085,-88.1395,76.09,1111122 
DISL,ioos:station:DISL:CATA:1,2014-06-07T01:30:00Z,30.3085,-88.1395,77.42,1111122 
DISL,ioos:station:DISL:CATA:1,2014-06-07T02:00:00Z,30.3085,-88.1395,78.49,1111122 
DISL,ioos:station:DISL:CATA:1,2014-06-07T02:30:00Z,30.3085,-88.1395,78.73,1111122 
DISL,ioos:station:DISL:CATA:1,2014-06-07T03:00:00Z,30.3085,-88.1395,77.56,1111122 
DISL,ioos:station:DISL:CATA:1,2014-06-07T03:30:00Z,30.3085,-88.1395,76.77,1111122 